[[{"header":{"parameterUnit":"m.s-1","parameterCategory":1,"la1":30.2991,"la2":30.254,"lo1":-89.0895,"lo2":-89.0444,"dy":0.0017,"dx":0.0017,"nx":28,"ny":28,"refTime":"2023-09-08T21:00:00:Z","depth":0,"parameterNumber":2,"parameterNumberName":"U-component_of_WINDS"},"data":[0,0,0,0,0,0,0,0,0,0,0,0,0,0,0,0,0,0,0,0,0,0,0,0,0,0,0,0,0,0,0,0,0,0,0,0,0,0,0,0,0,0,0,0,0,0,0,0,0,0,0,0,0,0,0,0,0,0,-2.3927,-2.3926,0,-2.3847,-2.3846,-2.3845,-2.3656,-2.3652,-2.3648,-2.3645,-2.3568,-2.3569,-2.3571,0,0,0,0,0,0,0,0,0,0,0,0,0,-2.3921,-2.3922,-2.3927,-2.3926,-2.3925,-2.3847,-2.3846,-2.3845,-2.3657,-2.3652,-2.3647,-2.3643,-2.3567,-2.3569,-2.3571,0,0,0,0,0,0,0,0,0,0,0,0,0,-2.3891,-2.3922,-2.3927,-2.3822,-2.3811,-2.3847,-2.3846,-2.3844,-2.3658,-2.3652,-2.3646,-2.3641,-2.3567,-2.3569,-2.3571,-2.3705,0,0,-2.3579,-2.358,0,0,0,0,0,0,0,0,-2.3893,-2.3891,-2.3838,-2.3829,-2.3818,-2.3755,-2.3815,-2.3798,-2.3659,-2.3717,-2.3645,-2.3638,-2.3635,-2.3632,-2.363,-2.3701,-2.3698,-2.3579,-2.3581,-2.3582,-2.3582,0,0,0,0,0,0,0,-2.3895,-2.3894,-2.3895,-2.3838,-2.3825,-2.3779,-2.3769,-2.3811,-2.371,-2.3711,-2.3697,-2.369,-2.3629,-2.3628,-2.3627,-2.3697,-2.3579,-2.3581,-2.3583,-2.3584,-2.3871,-2.3877,0,0,0,0,0,0,-2.3912,-2.3897,-2.3898,-2.3893,-2.3841,-2.3784,-2.3772,-2.3781,-2.3709,-2.3692,-2.3695,-2.3681,-2.3627,-2.3624,-2.3623,-2.3774,-2.3582,-2.3584,-2.3585,-2.3865,-2.3873,-2.3879,0,0,0,0,0,0,-2.3912,-2.3914,-2.3901,-2.3891,-2.3886,-2.3791,-2.3803,-2.3783,-2.3782,-2.3697,-2.3678,-2.3713,-2.3622,-2.362,-2.3685,-2.3768,-2.3585,-2.3587,-2.3858,-2.3867,-2.3876,-2.4077,0,0,0,0,0,0,-2.3913,-2.3915,-2.3964,-2.3893,-2.3887,-2.3964,-2.3808,-2.3786,-2.3786,-2.3768,-2.3709,-2.3693,-2.3617,-2.3682,-2.3688,-2.3769,-2.3589,-2.385,-2.3862,-2.3873,-2.4063,-2.4092,-2.4117,0,0,0,0,0,-2.3913,-2.4026,-2.3968,-2.3969,-2.3946,-2.3969,-2.3966,-2.3874,-2.3794,-2.3843,-2.3787,-2.3695,-2.3758,-2.3691,-2.3695,-2.3778,-2.3844,-2.3859,-2.3872,-2.405,-2.4086,-2.4117,0,0,0,0,0,0,-2.4111,-2.4014,-2.3949,-2.4041,-2.4015,-2.3937,-2.3997,-2.3916,-2.3913,-2.3896,-2.3784,-2.3772,-2.3853,-2.3821,-2.3748,-2.3902,-2.3786,-2.3802,-2.392,-2.3954,-2.398,-2.3987,-2.3591,0,0,0,0,0,-2.4165,-2.4191,-2.4105,-2.4195,-2.4184,-2.4093,-2.41,-2.4031,-2.4,-2.3988,-2.3938,-2.3913,-2.3926,-2.3938,-2.3945,-2.4056,-2.4041,-2.4115,-2.4142,-2.4165,-2.4181,-2.4236,-2.4268,-2.3925,-2.3925,-2.3924,0,0,-2.4278,-2.4228,-2.4252,-2.4233,-2.4204,-2.4234,-2.4085,-2.4124,-2.4145,-2.3995,-2.4053,-2.4015,-2.3979,-2.4067,-2.4103,-2.4043,-2.4271,-2.4183,-2.4202,-2.4205,-2.4254,-2.4286,-2.4315,-2.3934,-2.3933,-2.3931,0,0,-2.4499,-2.4463,-2.4534,-2.4507,-2.4464,-2.4402,-2.4419,-2.4353,-2.4322,-2.4378,-2.4265,-2.4289,-2.4315,-2.4294,-2.4286,-2.4496,-2.4411,-2.4502,-2.4646,-2.4701,-2.4728,-2.4751,-2.4827,-2.4855,-2.4517,-2.4517,-2.4517,0,-2.4645,-2.4684,-2.4581,-2.4625,-2.4621,-2.4483,-2.4554,-2.4533,-2.4497,-2.4497,-2.4429,-2.4458,-2.4424,-2.4505,-2.4556,-2.4554,-2.457,-2.4509,-2.4732,-2.4754,-2.4775,-2.4845,-2.4874,-2.4528,-2.4527,-2.4526,-2.4525,0,-2.4866,-2.4895,-2.4957,-2.4922,-2.4924,-2.4982,-2.4888,-2.4903,-2.4833,-2.4779,-2.4837,-2.4791,-2.4786,-2.48,-2.4734,-2.4872,-2.4835,-2.4752,-2.4633,-2.4821,-2.4885,-2.4911,-2.4545,-2.4541,-2.4537,-2.4534,0,0,-2.5213,-2.5117,-2.5142,-2.5124,-2.5065,-2.5086,-2.5137,-2.5131,-2.5146,-2.5124,-2.5165,-2.5189,-2.511,-2.5101,-2.5031,-2.5079,-2.5249,-2.4989,-2.4986,-2.504,-2.5398,-2.5463,-2.5495,-2.5191,-2.5195,-2.5199,-2.5401,0,-2.542,-2.5501,-2.5408,-2.551,-2.5535,-2.5403,-2.5447,-2.5417,-2.5367,-2.5381,-2.5326,-2.5345,-2.5239,-2.5233,-2.5275,-2.5219,-2.5319,-2.5203,-2.5229,-2.5231,-2.5244,-2.5529,-2.5598,-2.5791,-2.5425,-2.543,-2.5433,0,-2.5675,-2.5662,-2.5766,-2.5698,-2.5706,-2.5748,-2.5733,-2.5748,-2.5711,-2.567,-2.566,-2.5574,-2.562,-2.5503,-2.5565,-2.5489,-2.5493,-2.5467,-2.5472,-2.5473,-2.5345,-2.5539,-2.585,-2.588,-2.5471,-2.5468,-2.5465,0,-2.5918,-2.5928,-2.599,-2.5978,-2.5902,-2.5934,-2.5904,-2.586,-2.5861,-2.5849,-2.5849,-2.5843,-2.584,-2.5838,-2.5753,-2.5675,-2.5826,-2.5702,-2.5795,-2.5798,-2.5835,-2.5834,-2.6153,-2.5836,-2.5835,-2.5835,-2.5834,0,-2.6161,-2.623,-2.6098,-2.6137,-2.6209,-2.6102,-2.6177,-2.6133,-2.6095,-2.6123,-2.6009,-2.6038,-2.5923,-2.594,-2.5874,-2.5936,-2.5935,-2.5905,-2.5887,-2.5916,-2.592,-2.5919,-2.5904,-2.5842,-2.5841,-2.5839,-2.5838,0,-2.6446,-2.6361,-2.642,-2.6341,-2.6323,-2.638,-2.6313,-2.6346,-2.6287,-2.6324,-2.6327,-2.6235,-2.6249,-2.6163,-2.6163,-2.6117,-2.6212,-2.617,-2.6225,-2.6213,-2.6311,-2.6304,-2.6642,-2.6681,-2.6338,-2.6342,-2.6345,0,-2.6608,-2.6657,-2.6582,-2.6592,-2.6567,-2.6585,-2.6585,-2.648,-2.6485,-2.6444,-2.6482,-2.6486,-2.6484,-2.6513,-2.6447,-2.6446,-2.6404,-2.6522,-2.6403,-2.6431,-2.6407,-2.6406,-2.641,-2.6549,-2.6553,-2.6556,-2.6559,0,-2.6904,-2.6858,-2.6861,-2.685,-2.6853,-2.6839,-2.6818,-2.6833,-2.6719,-2.6731,-2.6742,-2.6741,-2.6738,-2.6744,-2.6729,-2.6698,-2.6611,-2.6596,-2.6618,-2.665,-2.6679,-2.6665,-2.6294,-2.659,-2.6587,-2.6585,-2.6583,-2.6582,-2.7132,-2.717,-2.7122,-2.713,-2.7102,-2.7084,-2.7111,-2.7054,-2.7061,-2.705,-2.6987,-2.7011,-2.697,-2.694,-2.6918,-2.6935,-2.6878,-2.691,-2.6918,-2.6928,-2.6946,-2.6675,-2.6932,-2.6931,-2.693,-2.6929,-2.6928,0,-2.7423,-2.7385,-2.7393,-2.7365,-2.7371,-2.7285,-2.7256,-2.7268,-2.7289,-2.7257,-2.7257,-2.727,-2.7275,-2.7208,-2.7204,-2.7231,-2.719,-2.7233,-2.7231,-2.7226,-2.6996,-2.6978,-2.7266,-2.7266,-2.7266,-2.7266,-2.7266,-2.7266,-2.7575,-2.7633,-2.7582,-2.7625,-2.7586,-2.7607,-2.7598,-2.7581,-2.7555,-2.7575,-2.7577,-2.7532,-2.7486,-2.7478,-2.7478,-2.7458,-2.7463,-2.752,-2.7487,-2.7274,-2.7242,-2.7211,-2.7193,-2.7521,-2.7522,-2.7715,-2.7716,-2.7718]},{"header":{"parameterUnit":"m.s-1","parameterCategory":1,"la1":30.2991,"la2":30.254,"lo1":-89.0895,"lo2":-89.0444,"dy":0.0017,"dx":0.0017,"nx":28,"ny":28,"refTime":"2023-09-08T21:00:00:Z","depth":0,"parameterNumber":3,"parameterNumberName":"V-component_of_WINDS"},"data":[0,0,0,0,0,0,0,0,0,0,0,0,0,0,0,0,0,0,0,0,0,0,0,0,0,0,0,0,0,0,0,0,0,0,0,0,0,0,0,0,0,0,0,0,0,0,0,0,0,0,0,0,0,0,0,0,0,0,-3.8269,-3.827,0,-3.8324,-3.8324,-3.8325,-3.8277,-3.8275,-3.8273,-3.8271,-3.8322,-3.8326,-3.8329,0,0,0,0,0,0,0,0,0,0,0,0,0,-3.8119,-3.8122,-3.8269,-3.827,-3.8271,-3.8324,-3.8324,-3.8325,-3.8277,-3.8275,-3.8272,-3.827,-3.8321,-3.8325,-3.8329,0,0,0,0,0,0,0,0,0,0,0,0,0,-3.818,-3.8123,-3.8269,-3.8253,-3.8252,-3.8323,-3.8324,-3.8325,-3.8278,-3.8275,-3.8272,-3.8269,-3.832,-3.8325,-3.833,-3.8418,0,0,-3.8344,-3.8346,0,0,0,0,0,0,0,0,-3.8177,-3.8186,-3.8255,-3.8255,-3.8254,-3.829,-3.829,-3.8356,-3.8278,-3.8268,-3.8271,-3.8267,-3.8314,-3.8319,-3.8336,-3.842,-3.8422,-3.8345,-3.8347,-3.835,-3.8351,0,0,0,0,0,0,0,-3.8173,-3.8183,-3.8291,-3.8256,-3.8255,-3.8242,-3.8247,-3.8302,-3.8307,-3.8269,-3.8265,-3.8272,-3.8313,-3.8331,-3.8336,-3.8423,-3.8344,-3.8349,-3.8352,-3.8354,-3.8581,-3.8584,0,0,0,0,0,0,-3.8171,-3.818,-3.8289,-3.8292,-3.8207,-3.8247,-3.8253,-3.8282,-3.8306,-3.8307,-3.8275,-3.827,-3.8324,-3.8331,-3.8338,-3.8441,-3.835,-3.8354,-3.8357,-3.8577,-3.8581,-3.8585,0,0,0,0,0,0,-3.8168,-3.8181,-3.8287,-3.8235,-3.8248,-3.8253,-3.8285,-3.8284,-3.8302,-3.8311,-3.8311,-3.8293,-3.8322,-3.8331,-3.8398,-3.8442,-3.8356,-3.8361,-3.8574,-3.8579,-3.8583,-3.865,0,0,0,0,0,0,-3.8164,-3.818,-3.8215,-3.8236,-3.8251,-3.8348,-3.8288,-3.8287,-3.8311,-3.8305,-3.8328,-3.8328,-3.8321,-3.8391,-3.8403,-3.8447,-3.8364,-3.857,-3.8576,-3.8582,-3.8644,-3.8656,-3.8667,0,0,0,0,0,-3.8158,-3.8231,-3.8217,-3.823,-3.8295,-3.835,-3.8358,-3.8349,-3.8315,-3.8349,-3.8354,-3.8328,-3.8436,-3.8398,-3.8411,-3.8458,-3.8567,-3.8574,-3.8581,-3.8638,-3.8654,-3.8667,0,0,0,0,0,0,-3.8214,-3.8234,-3.8218,-3.8301,-3.8324,-3.8342,-3.8385,-3.8366,-3.8399,-3.8392,-3.8377,-3.8383,-3.8453,-3.8462,-3.842,-3.8543,-3.8496,-3.8506,-3.8535,-3.855,-3.8561,-3.8557,-3.8368,0,0,0,0,0,-3.8236,-3.8281,-3.8295,-3.8366,-3.8379,-3.838,-3.8404,-3.8395,-3.8418,-3.8428,-3.8438,-3.846,-3.8499,-3.8525,-3.8561,-3.8645,-3.8648,-3.8683,-3.8695,-3.8704,-3.8713,-3.8755,-3.8771,-3.8608,-3.8608,-3.8608,0,0,-3.8281,-3.8298,-3.8327,-3.8378,-3.8395,-3.844,-3.8389,-3.8439,-3.8472,-3.8435,-3.8499,-3.8507,-3.8531,-3.8606,-3.864,-3.8616,-3.8758,-3.8714,-3.8721,-3.8724,-3.8764,-3.878,-3.8793,-3.8613,-3.8612,-3.8611,0,0,-3.8386,-3.8405,-3.8465,-3.8483,-3.8511,-3.8511,-3.8525,-3.8546,-3.855,-3.8614,-3.8587,-3.8625,-3.8693,-3.871,-3.8728,-3.884,-3.8816,-3.8852,-3.8912,-3.8954,-3.8967,-3.8978,-3.9016,-3.903,-3.886,-3.8861,-3.8861,0,-3.8439,-3.8508,-3.8498,-3.855,-3.8573,-3.8542,-3.8602,-3.862,-3.8657,-3.8672,-3.8646,-3.8729,-3.8743,-3.8821,-3.8848,-3.8864,-3.8879,-3.8849,-3.8966,-3.8977,-3.8988,-3.9023,-3.9038,-3.8865,-3.8864,-3.8864,-3.8863,0,-3.857,-3.8618,-3.8663,-3.87,-3.8728,-3.8784,-3.8781,-3.8809,-3.8798,-3.88,-3.8864,-3.888,-3.8918,-3.8937,-3.8925,-3.9012,-3.8997,-3.8969,-3.892,-3.9007,-3.9041,-3.9054,-3.8871,-3.8869,-3.8868,-3.8867,0,0,-3.8711,-3.8743,-3.8759,-3.8775,-3.8803,-3.8838,-3.8892,-3.893,-3.8954,-3.8981,-3.9024,-3.9082,-3.9056,-3.9076,-3.9066,-3.9103,-3.9188,-3.907,-3.907,-3.909,-3.9282,-3.9302,-3.9318,-3.9173,-3.9176,-3.9178,-3.928,0,-3.8816,-3.8911,-3.8903,-3.8992,-3.9034,-3.9006,-3.9052,-3.9073,-3.9076,-3.9112,-3.9115,-3.9155,-3.9119,-3.9131,-3.9166,-3.917,-3.9226,-3.9163,-3.9211,-3.9212,-3.9204,-3.9336,-3.9357,-3.9453,-3.9293,-3.9295,-3.9297,0,-3.8951,-3.8983,-3.9077,-3.9096,-3.9114,-3.9156,-3.9189,-3.9225,-3.9247,-3.9246,-3.9269,-3.9253,-3.9305,-3.9256,-3.9326,-3.9283,-3.9302,-3.9307,-3.9311,-3.9313,-3.9259,-3.934,-3.9483,-3.9497,-3.9317,-3.9316,-3.9314,0,-3.9043,-3.9109,-3.9173,-3.9188,-3.9213,-3.9242,-3.9254,-3.9274,-3.9297,-3.9326,-3.934,-3.9375,-3.9393,-3.942,-3.9412,-3.9378,-3.9483,-3.9434,-3.9482,-3.9483,-3.9504,-3.9503,-3.9651,-3.952,-3.952,-3.952,-3.9519,0,-3.916,-3.9217,-3.9214,-3.9253,-3.9316,-3.9306,-3.9368,-3.9376,-3.9393,-3.9432,-3.9409,-3.9445,-3.9435,-3.947,-3.9464,-3.9522,-3.9531,-3.9531,-3.9528,-3.9532,-3.9531,-3.9543,-3.9535,-3.9523,-3.9523,-3.9522,-3.9521,0,-3.9272,-3.9272,-3.934,-3.9358,-3.9364,-3.9409,-3.9424,-3.9459,-3.9461,-3.951,-3.9521,-3.9523,-3.9563,-3.9559,-3.9604,-3.96,-3.9671,-3.9662,-3.9664,-3.9661,-3.9709,-3.9704,-3.9867,-3.9887,-3.9746,-3.9747,-3.9748,0,-3.9346,-3.9389,-3.9412,-3.9437,-3.9451,-3.9491,-3.9515,-3.9506,-3.9531,-3.956,-3.9591,-3.963,-3.966,-3.9726,-3.973,-3.9764,-3.9754,-3.9809,-3.9758,-3.976,-3.9752,-3.9749,-3.9752,-3.9818,-3.982,-3.9821,-3.9822,0,-3.9476,-3.9474,-3.951,-3.9545,-3.9574,-3.9601,-3.9626,-3.9647,-3.9641,-3.967,-3.9711,-3.9735,-3.9781,-3.9819,-3.9851,-3.986,-3.984,-3.9838,-3.9851,-3.9854,-3.9852,-3.9852,-3.9689,-3.9834,-3.9833,-3.9832,-3.9831,-3.9831,-3.957,-3.9606,-3.9628,-3.9668,-3.9686,-3.9709,-3.9744,-3.975,-3.9785,-3.9822,-3.9815,-3.9861,-3.988,-3.9921,-3.9934,-3.9969,-3.9948,-3.9967,-3.9971,-3.9976,-3.998,-3.9849,-3.9975,-3.9974,-3.9974,-3.9974,-3.9974,0,-3.9697,-3.971,-3.9747,-3.9782,-3.9813,-3.9793,-3.9819,-3.9845,-3.9887,-3.9907,-3.9938,-3.9984,-4.002,-4.0028,-4.0062,-4.0088,-4.0079,-4.0097,-4.0094,-4.0096,-3.9998,-3.9982,-4.0104,-4.0104,-4.0104,-4.0103,-4.0103,-4.0103,-3.9767,-3.9827,-3.9828,-3.9896,-3.9908,-3.9954,-3.997,-3.9991,-4.0007,-4.006,-4.0091,-4.0096,-4.0111,-4.0145,-4.0177,-4.0178,-4.0191,-4.0212,-4.0209,-4.0116,-4.0103,-4.0091,-4.0077,-4.0215,-4.0216,-4.0304,-4.0305,-4.0306]}]]